This is the latest recevied weather packets stored in our database for station/object K0WOI. If no packets are shown the sender has not sent any weather packets the latest 10 day(s).
| Time | Temp. | Humidity | Pressure | Rain* | Wind** | Luminosity | Snow |
|---|---|---|---|---|---|---|---|
| 1777980247 | 5.56° C | 95% | 1010.4 hPa | 0 mm | - | 5 W/m² | - |
| 1777979943 | 5.56° C | 95% | 1010.4 hPa | 0 mm | - | 3 W/m² | - |
| 1777979637 | 5.56° C | 94% | 1010.3 hPa | 0 mm | - | 1 W/m² | - |
| 1777979334 | 5.56° C | 93% | 1010.1 hPa | 0 mm | - | 1 W/m² | - |
| 1777979031 | 5.56° C | 93% | 1010.2 hPa | 0 mm | - | 0 W/m² | - |
| 1777978728 | 5.56° C | 93% | 1009.9 hPa | 0 mm | - | 0 W/m² | - |
| 1777978424 | 6.11° C | 92% | 1009.8 hPa | 0 mm | - | 0 W/m² | - |
| 1777978120 | 6.11° C | 91% | 1009.8 hPa | 0 mm | - | 0 W/m² | - |
| 1777977818 | 6.11° C | 90% | 1009.8 hPa | 0 mm | - | 0 W/m² | - |
| 1777977514 | 6.11° C | 88% | 1009.7 hPa | 0 mm | - | 0 W/m² | - |
| 1777977212 | 6.67° C | 86% | 1009.4 hPa | 0 mm | - | 0 W/m² | - |
| 1777976909 | 6.67° C | 85% | 1009.4 hPa | 0 mm | - | 0 W/m² | - |
| 1777976606 | 6.11° C | 83% | 1009.6 hPa | 0 mm | - | 0 W/m² | - |
| 1777976302 | 6.11° C | 81% | 1009.6 hPa | 0 mm | - | 0 W/m² | - |
| 1777975997 | 6.11° C | 83% | 1009.4 hPa | 0 mm | - | 0 W/m² | - |
| 1777975693 | 6.67° C | 83% | 1009.2 hPa | 0 mm | - | 0 W/m² | - |
| 1777975390 | 6.67° C | 84% | 1009.1 hPa | 0 mm | - | 0 W/m² | - |
| 1777975085 | 6.67° C | 82% | 1009.4 hPa | 0 mm | - | 0 W/m² | - |
| 1777974783 | 6.67° C | 80% | 1009.3 hPa | 0 mm | - | 0 W/m² | - |
| 1777974478 | 6.67° C | 83% | 1009.2 hPa | 0 mm | - | 0 W/m² | - |
| 1777974176 | 6.67° C | 86% | 1009.2 hPa | 0 mm | - | 0 W/m² | - |
| 1777973871 | 6.67° C | 88% | 1009.2 hPa | 0 mm | - | 0 W/m² | - |
| 1777973569 | 6.67° C | 88% | 1009.1 hPa | 0 mm | - | 0 W/m² | - |
| 1777973266 | 6.67° C | 88% | 1008.9 hPa | 0 mm | - | 0 W/m² | - |
| 1777972964 | 7.22° C | 87% | 1008.6 hPa | 0 mm | - | 0 W/m² | - |
* Rain latest hour (hover to see other rain measurements)
** Current wind speed in m/s (hover to see current wind gust speed)